This is the latest recevied weather packets stored in our database for station/object DG4MJS-10. If no packets are shown the sender has not sent any weather packets the latest 10 day(s).
| Time | Temp. | Humidity | Pressure | Rain* | Wind** | Luminosity | Snow |
|---|---|---|---|---|---|---|---|
| 1777561197 | 17.78° C | 22% | 1023.8 hPa | - | - | - | - |
| 1777560297 | 17.22° C | 21% | 1023.8 hPa | - | - | - | - |
| 1777559397 | 17.78° C | 23% | 1023.7 hPa | - | - | - | - |
| 1777558497 | 18.33° C | 24% | 1023.8 hPa | - | - | - | - |
| 1777557597 | 18.33° C | 20% | 1023.8 hPa | - | - | - | - |
| 1777556697 | 17.78° C | 20% | 1024 hPa | - | - | - | - |
| 1777555797 | 18.33° C | 21% | 1024.1 hPa | - | - | - | - |
| 1777554897 | 16.11° C | 24% | 1024.3 hPa | - | - | - | - |
| 1777553997 | 15.56° C | 25% | 1024.4 hPa | - | - | - | - |
| 1777553097 | 15.56° C | 26% | 1024.5 hPa | - | - | - | - |
| 1777552197 | 15° C | 27% | 1024.7 hPa | - | - | - | - |
| 1777551297 | 15° C | 27% | 1024.6 hPa | - | - | - | - |
| 1777550396 | 15° C | 27% | 1024.7 hPa | - | - | - | - |
| 1777549495 | 14.44° C | 27% | 1024.8 hPa | - | - | - | - |
| 1777548595 | 14.44° C | 26% | 1024.7 hPa | - | - | - | - |
| 1777547695 | 14.44° C | 28% | 1024.9 hPa | - | - | - | - |
| 1777546795 | 13.89° C | 26% | 1025.1 hPa | - | - | - | - |
| 1777545895 | 13.89° C | 27% | 1025.2 hPa | - | - | - | - |
| 1777544995 | 13.89° C | 27% | 1025.4 hPa | - | - | - | - |
| 1777544096 | 13.89° C | 31% | 1025.5 hPa | - | - | - | - |
| 1777543196 | 13.89° C | 33% | 1025.6 hPa | - | - | - | - |
| 1777542296 | 13.33° C | 33% | 1025.6 hPa | - | - | - | - |
| 1777541396 | 12.78° C | 32% | 1025.6 hPa | - | - | - | - |
| 1777540496 | 12.78° C | 32% | 1025.6 hPa | - | - | - | - |
| 1777539596 | 12.78° C | 32% | 1025.6 hPa | - | - | - | - |
* Rain since midnight (hover to see other rain measurements)
** Current wind speed in m/s (hover to see current wind gust speed)